Home > Weather > Sultanpur > Past weeks

Flag for India Weather for the Past 2 Weeks in Sultanpur, Uttar Pradesh, India

Now
79 °F

Thunderstorms. Mostly cloudy.


Feels Like: 81 °F
Forecast: 81 / 100 °F
Wind: 18 mph from West

Location: Lucknow / Amausi

Current Time: May 6, 2016 at 5:36:22 AM

Latest Report: May 6, 2016 at 5:00 AM


Visibility: 1 mi

Pressure: 29.80 "Hg

Humidity: 61%

Dew Point: 64 °F

Location of SultanpurLocation

Historic Weather in Sultanpur — Graph

°F

Sultanpur Temperature Yesterday

Maximum temperature yesterday: 100 °F (at 3:00 PM)
Minimum temperature yesterday: 77 °F (at 6:00 AM)
Average temperature yesterday: 89 °F

High & Low Weather Summary for the Past Weeks

 TemperatureHumidityPressure
High122 °F (May 4, 5:00 AM)70% (May 3, 6:00 AM)29.86 "Hg (May 3, 6:00 AM)
Low72 °F (Apr 25, 6:00 AM)6% (May 4, 5:00 AM)29.45 "Hg (Apr 23, 4:00 AM)
Average94 °F26%29.63 "Hg
* Reported Apr 21 4:00 AM — May 6 4:00 AM, Sultanpur, Weather by CustomWeather, © 2016

Note: Actual official high and low records may vary slightly from our data, if they occured in-between our weather recording intervals... More about our weather records

Advertising

Sultanpur Weather History for the Previous 24 Hours

Scroll right to see more
 ConditionsComfort  
Time TempWeatherWind HumidityBarometerVisibility
4:00 AM
Fri, May 6
82 °FPassing clouds.12 mph58%29.71 "Hg1 mi
3:00 AM82 °FHaze.No wind55%29.71 "Hg2 mi
2:00 AM84 °FHaze.3 mph51%29.68 "Hg2 mi
1:00 AM86 °FHaze.No wind49%29.71 "Hg2 mi
12:00 AM88 °FHaze.No wind46%29.71 "Hg2 mi
11:00 PM
Thu, May 5
88 °FHaze.No wind46%29.71 "Hg2 mi
10:00 PM88 °FHaze.3 mph46%29.71 "Hg2 mi
9:00 PM90 °FHaze.3 mph43%29.68 "Hg2 mi
8:30 PM91 °FHaze.3 mph44%29.68 "Hg2 mi
8:00 PM91 °FHaze.3 mph41%29.65 "Hg2 mi
7:00 PM95 °FHaze.5 mph34%29.65 "Hg3 mi
6:30 PM97 °FHaze.6 mph32%29.65 "Hg3 mi
6:00 PM97 °FHaze.5 mph34%29.65 "Hg3 mi
5:30 PM99 °FHaze.5 mph33%29.65 "Hg3 mi
5:00 PM99 °FHaze.3 mph33%29.65 "Hg3 mi
4:30 PM100 °FHaze.3 mph31%29.68 "Hg3 mi
3:30 PM100 °FHaze.5 mph31%29.68 "Hg3 mi
3:00 PM100 °FHaze.7 mph29%29.71 "Hg3 mi
2:30 PM99 °FHaze.12 mph33%29.71 "Hg3 mi
1:30 PM99 °FScattered clouds.14 mph33%29.74 "Hg3 mi
1:00 PM97 °FScattered clouds.12 mph34%29.77 "Hg3 mi
12:30 PM97 °FScattered clouds.14 mph37%29.80 "Hg3 mi
12:00 PM95 °FScattered clouds.13 mph36%29.80 "Hg3 mi
11:30 AM93 °FScattered clouds.12 mph36%29.83 "Hg3 mi
11:00 AM93 °FScattered clouds.12 mph39%29.83 "Hg3 mi
10:30 AM90 °FScattered clouds.15 mph41%29.83 "Hg2 mi
10:00 AM88 °FScattered clouds.13 mph49%29.83 "Hg2 mi
9:30 AM86 °FScattered clouds.13 mph52%29.86 "Hg2 mi
8:30 AM82 °FScattered clouds.13 mph70%29.86 "Hg2 mi
8:00 AM81 °FScattered clouds.14 mph62%29.86 "Hg2 mi
7:30 AM81 °FBroken clouds.14 mph58%29.86 "Hg2 mi
7:00 AM79 °FLight rain. Broken clouds.14 mph61%29.83 "Hg2 mi
6:30 AM79 °FScattered clouds.14 mph58%29.83 "Hg2 mi
6:00 AM77 °FScattered clouds.9 mph61%29.74 "Hg2 mi
5:30 AM79 °FPassing clouds.9 mph58%29.71 "Hg2 mi
5:00 AM79 °FPassing clouds.9 mph61%29.71 "Hg2 mi
Weather by CustomWeather, © 2016

See weather overviewHow to use our weather pages